STARLINK-34687, 64909

Orbit data source: Space-Track

STARLINK-34687, 64909 is a payload satellite owned by SpaceX/Seattle (US) in LEO that was launched on Sat, 26 Jul 2025 UTC via an FALCON 9 launch vehicle from the Air Force Eastern Test Range (AFETR). Payload-class satellites include a variety of spacecraft equipped with specific instruments for various scientific and technological missions. These include communications satellites like Starlink; space stations such as the ISS; scientific satellites like the Hubble; Earth observation satellites from companies like Planet Labs, Umbra, and HawkEye 360; GPS; miniature CubeSats for education and research; and military/defense satellites.

Loading next visibility...
Identifier
64909, 2025-157F
Orbit
LEO
Country
Flag of USUS
Related business
Manufacturer
SpaceX/Seattle
Mission
Operational Commercial Communications
Bus & Motor
STARLINK V2MO, Unknown motor
Mass
575 kg wet, ~530 kg dry
Launch date (UTC)
2025-07-26 (4 months ago)
Launch vehicle
FALCON 9
Launch site
Air Force Eastern Test Range (AFETR)
Object type
Payload
Rocket body
Debris
Shape & HBR
Box + 2 Pan, 17.7 m
Radar Cross Section
36.964 m², Large (>1 m²)

Expand to show TLE details & history
Last TLE update: 18 hours ago

TLE from 18 hours ago
0 STARLINK-34687
1 64909U 25157F   25340.63976608  .00089433  00000-0  22156-2 0  9992
2 64909  53.1590  61.6969 0001216  76.8829 283.2312 15.39675431 21772
Epoch: 2025-12-06T15:21Z
TLE epoch observation values (Epoch: 2025-12-06T15:21:15.789Z)
Latitude
0.00003°
Longitude
115.71652°
Altitude
447.782 km
Speed
7.645 km/s
True Right ascension
04h 06m 47s
True Declination
0° 00' 00"
Sunlit
Object was in full shadow at epoch
Visualization orbit readout
Latitude
Unknown
Longitude
Unknown
Altitude
Unknown
Speed
Unknown
Apparent Right ascension
Unknown
Apparent Declination
Unknown
Sunlit
N/A
Visualization observer readout
Local Sidereal Time
07:40:10
Azimuth
Unknown
Elevation
Unknown
Doppler factor
Unknown
Orbital elements
Apogee altitude
448.156 km
Perigee altitude
446.496 km
Semi-major axis
6,825.463 km
Eccentricity
0.00012
Inclination
53.159°
RAAN
61.6969°
Arg. of periapsis
76.8829°
True anomaly
283.21764°
Mean anomaly
283.2312°
Eccentric anomaly
283.22442°
Mean motion
3.84897 °/min
Orbital period
93.53 mins
BSTAR
0.0022156
Loading maneuver chart data...
Computing Atmospheric mass density...
Loading historical data...
Loading historical data...
Loading historical data...
Loading historical data...
Loading historical data...
Loading historical data...
Loading historical data...

Documentation

Showing up to 5 results
|